FW8840 Weather Reports


Display with metric or nautical units.
time (UTC)temp
F
wind
direction
speed
MPH
gust
MPH
rain 1hr
in
rain 24hr
in
rain mn
in
humidity
%
barometer
mb
20260906071525 81 300 4.0 9.0 0.00 0.00 0.00 55 1018.2
20260906070525 80 282 4.0 7.0 0.00 0.00 0.00 56 1018.2
20260906065525 79 280 4.0 7.0 0.00 0.00 0.00 58 1018.1
20260906064545 78 279 4.0 7.0 0.00 0.00 0.00 62 1017.9
20260906063525 77 279 4.0 9.0 0.00 0.00 0.00 65 1017.9
20260906062525 77 280 4.0 6.0 0.00 0.00 0.00 67 1017.9
20260906061557 75 340 1.0 4.0 0.00 0.00 0.00 68 1017.8
20260906060525 74 275 2.0 6.0 0.00 0.00 0.00 71 1017.7
20260906055525 74 296 3.0 6.0 0.00 0.00 0.00 72 1017.8
20260906054546 73 286 3.0 4.0 0.00 0.00 0.00 74 1017.8
20260906053525 73 270 3.0 6.0 0.00 0.00 0.00 76 1017.7
20260906052525 72 280 5.0 7.0 0.00 0.00 0.00 75 1017.7
20260906051525 70 202 1.0 2.0 0.00 0.00 0.00 73 1017.5
20260906050525 68 202 1.0 2.0 0.00 0.00 0.00 77 1017.5
20260906045525 67 202 4.0 4.0 0.00 0.00 0.00 78 1017.3
20260906044525 66 225 4.0 4.0 0.00 0.00 0.00 79 1017.2
20260906043525 65 206 4.0 4.0 0.00 0.00 0.00 79 1017.1
20260906042524 64 180 3.0 4.0 0.00 0.00 0.00 79 1017.0
20260906041525 65 180 2.0 4.0 0.00 0.00 0.00 77 1016.9
20260906040525 65 202 2.0 3.0 0.00 0.00 0.00 74 1016.9
20260906035524 65 202 4.0 4.0 0.00 0.00 0.00 73 1016.8
20260906034525 65 202 4.0 4.0 0.00 0.00 0.00 71 1016.6
20260906033544 66 202 3.0 4.0 0.00 0.00 0.00 69 1016.6
20260906032524 66 192 3.0 4.0 0.00 0.00 0.00 66 1016.5
20260906031526 66 202 5.0 6.0 0.00 0.00 0.00 65 1016.6
20260906030544 67 192 4.0 5.0 0.00 0.00 0.00 63 1016.5
20260906025525 67 211 4.0 6.0 0.00 0.00 0.00 62 1016.5
20260906024524 67 202 5.0 7.0 0.00 0.00 0.00 61 1016.4
20260906023544 67 202 5.0 5.0 0.00 0.00 0.00 61 1016.4
20260906022524 66 202 6.0 7.0 0.00 0.00 0.00 61 1016.3
20260906021544 65 204 5.0 7.0 0.00 0.00 0.00 63 1016.3
20260906020524 66 180 4.0 4.0 0.00 0.00 0.00 64 1016.3
20260906015526 67 102 1.0 2.0 0.00 0.00 0.00 63 1016.3
20260906014524 68 102 0.0 1.0 0.00 0.00 0.00 60 1016.4
20260906013523 68 225 3.0 6.0 0.00 0.00 0.00 59 1016.2
20260906012524 68 225 4.0 4.0 0.00 0.00 0.00 58 1016.2
20260906011524 68 197 5.0 6.0 0.00 0.00 0.00 59 1016.2
20260906010525 68 200 4.0 6.0 0.00 0.00 0.00 60 1016.2
20260906005544 68 202 4.0 4.0 0.00 0.00 0.00 59 1016.3
20260906004544 68 202 3.0 4.0 0.00 0.00 0.00 59 1016.3
20260906003528 69 199 4.0 4.0 0.00 0.00 0.00 59 1016.3
20260906002524 69 207 5.0 6.0 0.00 0.00 0.00 59 1016.3
20260906001544 69 197 4.0 6.0 0.00 0.00 0.00 59 1016.3
20260906000523 69 198 4.0 6.0 0.00 0.00 0.00 60 1016.3
20260905235524 69 213 4.0 4.0 0.00 0.00 0.00 60 1016.3
20260905234524 69 196 3.0 4.0 0.00 0.00 0.00 60 1016.5
20260905233524 70 202 3.0 4.0 0.00 0.00 0.00 59 1016.5
20260905232524 70 202 2.0 4.0 0.00 0.00 0.00 58 1016.4
20260905231525 69 202 6.0 8.0 0.00 0.00 0.00 58 1016.5
20260905230523 69 203 4.0 6.0 0.00 0.00 0.00 60 1016.5
20260905225523 69 202 4.0 4.0 0.00 0.00 0.00 61 1016.7
20260905224524 70 202 3.0 4.0 0.00 0.00 0.00 61 1016.7
20260905223525 71 202 3.0 4.0 0.00 0.00 0.00 59 1016.6
20260905222523 70 201 4.0 6.0 0.00 0.00 0.00 59 1016.6
20260905221524 70 202 5.0 6.0 0.00 0.00 0.00 61 1016.5
20260905220524 70 199 4.0 5.0 0.00 0.00 0.00 61 1016.7
20260905215523 70 202 4.0 4.0 0.00 0.00 0.00 61 1016.7
20260905214544 71 194 3.0 4.0 0.00 0.00 0.00 61 1016.8
20260905213544 71 180 3.0 5.0 0.00 0.00 0.00 60 1016.8
20260905212524 71 202 4.0 7.0 0.00 0.00 0.00 60 1016.9
20260905211523 71 202 4.0 5.0 0.00 0.00 0.00 61 1016.9
20260905210544 70 202 4.0 5.0 0.00 0.00 0.00 60 1016.8
20260905205526 71 202 3.0 4.0 0.00 0.00 0.00 61 1017.0
20260905204544 71 202 2.0 4.0 0.00 0.00 0.00 58 1017.0
20260905203545 71 202 2.0 4.0 0.00 0.00 0.00 57 1016.9
20260905202547 72 202 3.0 4.0 0.00 0.00 0.00 55 1016.9
20260905201524 72 202 2.0 4.0 0.00 0.00 0.00 54 1016.9
20260905200523 72 202 3.0 4.0 0.00 0.00 0.00 54 1016.9
20260905195525 73 202 2.0 3.0 0.00 0.00 0.00 54 1017.0
20260905194523 73 202 2.0 4.0 0.00 0.00 0.00 54 1016.9
20260905193523 73 202 4.0 4.0 0.00 0.00 0.00 53 1017.0
20260905192525 74 202 4.0 5.0 0.00 0.00 0.00 54 1017.0
20260905191523 74 202 4.0 6.0 0.00 0.00 0.00 54 1017.1
20260905190523 75 202 4.0 4.0 0.00 0.00 0.00 53 1017.1
20260905185525 76 197 3.0 4.0 0.00 0.00 0.00 52 1016.9
20260905184544 77 193 3.0 4.0 0.00 0.00 0.00 51 1016.9
20260905183547 79 180 2.0 4.0 0.00 0.00 0.00 49 1016.8
20260905182523 80 166 2.0 4.0 0.00 0.00 0.00 46 1016.7
20260905181523 79 135 3.0 4.0 0.00 0.00 0.00 46 1016.6
20260905180543 78 118 4.0 7.0 0.00 0.00 0.00 50 1016.6
20260905175523 78 168 3.0 4.0 0.00 0.00 0.00 50 1016.4
20260905174523 79 173 5.0 7.0 0.00 0.00 0.00 49 1016.4
20260905173523 79 179 5.0 9.0 0.00 0.00 0.00 48 1016.2
20260905172523 80 183 5.0 7.0 0.00 0.00 0.00 47 1016.2
20260905171523 81 203 5.0 7.0 0.00 0.00 0.00 46 1016.2
20260905170525 82 186 5.0 8.0 0.00 0.00 0.00 45 1016.0
20260905165530 83 137 6.0 9.0 0.00 0.00 0.00 45 1016.0
20260905164522 84 183 6.0 9.0 0.00 0.00 0.00 44 1016.0
20260905163530 86 172 5.0 7.0 0.00 0.00 0.00 44 1016.0
20260905162523 87 174 6.0 9.0 0.00 0.00 0.00 44 1016.1
20260905161523 87 180 7.0 10.0 0.00 0.00 0.00 42 1016.1
20260905160522 88 160 6.0 11.0 0.00 0.00 0.00 37 1016.0
20260905155523 88 184 5.0 7.0 0.00 0.00 0.00 38 1016.0
20260905154523 88 191 5.0 9.0 0.00 0.00 0.00 41 1015.9
20260905153523 89 185 8.0 12.0 0.00 0.00 0.00 40 1015.9
20260905152525 89 186 8.0 11.0 0.00 0.00 0.00 40 1015.8
20260905151523 90 206 8.0 11.0 0.00 0.00 0.00 39 1015.9
20260905150522 91 200 7.0 11.0 0.00 0.00 0.00 40 1015.8
20260905145523 92 206 6.0 9.0 0.00 0.00 0.00 36 1015.7
20260905144523 93 241 4.0 9.0 0.00 0.00 0.00 34 1015.8
20260905143524 94 246 2.0 6.0 0.00 0.00 0.00 31 1016.0
20260905142523 94 306 0.0 4.0 0.00 0.00 0.00 31 1016.0
20260905141523 94 252 3.0 6.0 0.00 0.00 0.00 30 1016.1
20260905140523 94 292 4.0 9.0 0.00 0.00 0.00 30 1016.0
20260905135523 94 292 5.0 8.0 0.00 0.00 0.00 29 1016.1
20260905134523 94 278 3.0 7.0 0.00 0.00 0.00 30 1016.3
20260905133523 94 289 5.0 7.0 0.00 0.00 0.00 28 1016.4
20260905132522 94 283 5.0 9.0 0.00 0.00 0.00 28 1016.5
20260905131522 93 273 3.0 9.0 0.00 0.00 0.00 28 1016.6
20260905130523 93 273 5.0 9.0 0.00 0.00 0.00 28 1016.6
20260905125522 93 299 6.0 9.0 0.00 0.00 0.00 27 1016.8
20260905124522 93 279 5.0 9.0 0.00 0.00 0.00 28 1016.9
20260905123523 93 266 6.0 10.0 0.00 0.00 0.00 28 1017.0
20260905122524 93 261 5.0 8.0 0.00 0.00 0.00 28 1017.1
20260905121522 93 322 4.0 8.0 0.00 0.00 0.00 28 1017.3
20260905120542 93 275 4.0 9.0 0.00 0.00 0.00 28 1017.4
20260905115523 92 278 4.0 8.0 0.00 0.00 0.00 29 1017.5
20260905114523 92 283 5.0 11.0 0.00 0.00 0.00 31 1017.6
20260905113522 92 290 6.0 9.0 0.00 0.00 0.00 32 1017.6
20260905112522 92 278 5.0 10.0 0.00 0.00 0.00 32 1017.7
20260905111543 92 281 4.0 9.0 0.00 0.00 0.00 32 1017.8
20260905110522 92 262 4.0 9.0 0.00 0.00 0.00 33 1017.8
20260905105623 91 273 4.0 6.0 0.00 0.00 0.00 34 1017.8
20260905104523 91 267 5.0 9.0 0.00 0.00 0.00 35 1018.0
20260905103522 90 280 4.0 6.0 0.00 0.00 0.00 36 1017.9
20260905102542 90 317 6.0 9.0 0.00 0.00 0.00 37 1018.1
20260905101523 90 289 5.0 9.0 0.00 0.00 0.00 36 1018.3
20260905100523 89 323 5.0 9.0 0.00 0.00 0.00 36 1018.4
20260905095548 89 298 5.0 7.0 0.00 0.00 0.00 37 1018.5
20260905094542 88 290 5.0 9.0 0.00 0.00 0.00 41 1018.6
20260905093522 88 280 5.0 9.0 0.00 0.00 0.00 41 1018.6
20260905092522 89 311 5.0 10.0 0.00 0.00 0.00 41 1018.7
20260905091522 88 331 4.0 8.0 0.00 0.00 0.00 42 1018.8
20260905090523 87 309 3.0 6.0 0.00 0.00 0.00 42 1018.8
20260905085522 87 274 6.0 9.0 0.00 0.00 0.00 44 1018.8
20260905084522 87 284 5.0 8.0 0.00 0.00 0.00 46 1018.9
20260905083522 87 301 5.0 7.0 0.00 0.00 0.00 45 1019.0
20260905082522 87 345 5.0 7.0 0.00 0.00 0.00 45 1019.0
20260905081522 86 337 4.0 7.0 0.00 0.00 0.00 46 1019.0
20260905080522 86 324 3.0 6.0 0.00 0.00 0.00 46 1019.0
20260905075522 85 330 5.0 8.0 0.00 0.00 0.00 47 1019.0
20260905074525 85 332 5.0 9.0 0.00 0.00 0.00 47 1019.0
20260905073525 85 298 3.0 5.0 0.00 0.00 0.00 47 1018.9
20260905072522 84 317 2.0 4.0 0.00 0.00 0.00 47 1018.8